| time (UTC) | temp F | wind direction | speed MPH | gust MPH | rain 1hr in | rain 24hr in | rain mn in | humidity % | barometer mb |
| 20260507232219 | 73 | 299 | 2.0 | 2.0 | 0.00 | 0.00 | 0.00 | 84 | 1008.0 |
| 20260507231716 | 73 | 217 | 3.0 | 4.0 | 0.00 | 0.00 | 0.00 | 84 | 1008.1 |
| 20260507231213 | 74 | 249 | 1.0 | 2.0 | 0.00 | 0.00 | 0.00 | 84 | 1007.8 |
| 20260507230709 | 73 | 219 | 0.0 | 1.0 | 0.00 | 0.00 | 0.00 | 84 | 1008.2 |
| 20260507230207 | 74 | 215 | 2.0 | 3.0 | 0.00 | 0.00 | 0.00 | 84 | 1007.7 |
| 20260507225706 | 74 | 236 | 1.0 | 2.0 | 0.00 | 0.00 | 0.00 | 84 | 1007.8 |
| 20260507225203 | 74 | 271 | 2.0 | 2.0 | 0.00 | 0.00 | 0.00 | 84 | 1007.8 |
| 20260507224659 | 74 | 263 | 1.0 | 2.0 | 0.00 | 0.00 | 0.00 | 84 | 1007.8 |
| 20260507224155 | 74 | 214 | 1.0 | 1.0 | 0.00 | 0.00 | 0.00 | 84 | 1007.7 |
| 20260507223652 | 74 | 30 | 2.0 | 2.0 | 0.00 | 0.00 | 0.00 | 84 | 1007.7 |
| 20260507223149 | 74 | 246 | 0.0 | 2.0 | 0.00 | 0.00 | 0.00 | 84 | 1007.6 |
| 20260507222646 | 74 | 306 | 1.0 | 1.0 | 0.00 | 0.00 | 0.00 | 84 | 1007.7 |
| 20260507222142 | 74 | 134 | 0.0 | 1.0 | 0.00 | 0.00 | 0.00 | 84 | 1007.8 |
| 20260507221638 | 74 | 279 | 2.0 | 2.0 | 0.00 | 0.00 | 0.00 | 84 | 1008.0 |
| 20260507221134 | 74 | 299 | 4.0 | 4.0 | 0.00 | 0.00 | 0.00 | 84 | 1007.7 |
| 20260507220632 | 74 | 279 | 4.0 | 7.0 | 0.00 | 0.00 | 0.00 | 84 | 1007.7 |
| 20260507220130 | 74 | 246 | 2.0 | 2.0 | 0.00 | 0.00 | 0.00 | 84 | 1007.7 |
| 20260507215625 | 73 | 89 | 3.0 | 4.0 | 0.00 | 0.00 | 0.00 | 84 | 1007.9 |
| 20260507215123 | 73 | 293 | 4.0 | 6.0 | 0.00 | 0.00 | 0.00 | 84 | 1007.6 |
| 20260507214620 | 74 | 329 | 2.0 | 3.0 | 0.00 | 0.00 | 0.00 | 84 | 1007.4 |
| 20260507214117 | 74 | 344 | 5.0 | 7.0 | 0.00 | 0.00 | 0.00 | 84 | 1007.8 |
| 20260507213613 | 74 | 271 | 2.0 | 4.0 | 0.00 | 0.00 | 0.00 | 84 | 1007.7 |
| 20260507213110 | 74 | 167 | 2.0 | 3.0 | 0.00 | 0.00 | 0.00 | 84 | 1007.6 |
| 20260507212606 | 74 | 20 | 1.0 | 3.0 | 0.00 | 0.00 | 0.00 | 83 | 1007.8 |
| 20260507212103 | 74 | 300 | 3.0 | 4.0 | 0.00 | 0.00 | 0.00 | 84 | 1007.8 |
| 20260507211600 | 74 | 40 | 3.0 | 4.0 | 0.00 | 0.00 | 0.00 | 83 | 1008.0 |
| 20260507211055 | 74 | 216 | 1.0 | 1.0 | 0.00 | 0.00 | 0.00 | 84 | 1007.9 |
| 20260507210553 | 74 | 197 | 2.0 | 2.0 | 0.00 | 0.00 | 0.00 | 84 | 1007.7 |
| 20260507210050 | 73 | 341 | 6.0 | 8.0 | 0.00 | 0.00 | 0.00 | 85 | 1007.9 |
| 20260507205546 | 73 | 289 | 2.0 | 3.0 | 0.00 | 0.00 | 0.00 | 85 | 1008.2 |
| 20260507205043 | 73 | 192 | 2.0 | 3.0 | 0.00 | 0.00 | 0.00 | 86 | 1008.2 |
| 20260507204539 | 73 | 296 | 4.0 | 6.0 | 0.00 | 0.00 | 0.00 | 86 | 1008.1 |
| 20260507204037 | 73 | 264 | 2.0 | 2.0 | 0.00 | 0.00 | 0.00 | 86 | 1008.3 |
| 20260507203535 | 73 | 63 | 2.0 | 2.0 | 0.00 | 0.00 | 0.00 | 86 | 1008.4 |
| 20260507203032 | 73 | 223 | 1.0 | 2.0 | 0.00 | 0.00 | 0.00 | 86 | 1008.4 |
| 20260507202527 | 72 | 237 | 2.0 | 2.0 | 0.00 | 0.00 | 0.00 | 86 | 1008.5 |
| 20260507202024 | 72 | 213 | 1.0 | 1.0 | 0.00 | 0.00 | 0.00 | 87 | 1008.7 |
| 20260507201519 | 72 | 145 | 2.0 | 2.0 | 0.00 | 0.00 | 0.00 | 87 | 1008.7 |
| 20260507201016 | 72 | 16 | 4.0 | 6.0 | 0.00 | 0.00 | 0.00 | 87 | 1008.6 |
| 20260507200511 | 72 | 90 | 1.0 | 2.0 | 0.00 | 0.00 | 0.00 | 86 | 1008.8 |
| 20260507200008 | 72 | 323 | 2.0 | 3.0 | 0.00 | 0.00 | 0.00 | 86 | 1009.0 |
| 20260507195505 | 72 | 12 | 1.0 | 2.0 | 0.00 | 0.00 | 0.00 | 86 | 1008.9 |
| 20260507195003 | 72 | 351 | 4.0 | 6.0 | 0.00 | 0.00 | 0.00 | 86 | 1008.9 |
| 20260507194459 | 73 | 28 | 3.0 | 3.0 | 0.00 | 0.00 | 0.00 | 85 | 1008.8 |
| 20260507193955 | 73 | 284 | 2.0 | 2.0 | 0.00 | 0.00 | 0.00 | 85 | 1008.9 |
| 20260507193452 | 73 | 288 | 2.0 | 4.0 | 0.00 | 0.00 | 0.00 | 85 | 1009.0 |
| 20260507192949 | 73 | 300 | 3.0 | 7.0 | 0.00 | 0.00 | 0.00 | 85 | 1009.1 |
| 20260507192444 | 73 | 38 | 2.0 | 3.0 | 0.00 | 0.00 | 0.00 | 86 | 1009.1 |
| 20260507191942 | 73 | 42 | 2.0 | 4.0 | 0.00 | 0.00 | 0.00 | 86 | 1009.1 |
| 20260507191438 | 72 | 24 | 2.0 | 2.0 | 0.00 | 0.00 | 0.00 | 86 | 1009.4 |
| 20260507190934 | 72 | 248 | 3.0 | 6.0 | 0.00 | 0.00 | 0.00 | 85 | 1009.5 |
| 20260507190432 | 73 | 236 | 3.0 | 4.0 | 0.00 | 0.00 | 0.00 | 85 | 1009.6 |
| 20260507185931 | 72 | 0 | 3.0 | 4.0 | 0.00 | 0.00 | 0.00 | 85 | 1009.5 |
| 20260507185428 | 72 | 237 | 2.0 | 2.0 | 0.00 | 0.00 | 0.00 | 86 | 1009.6 |
| 20260507184924 | 72 | 310 | 1.0 | 3.0 | 0.00 | 0.00 | 0.00 | 87 | 1009.8 |
| 20260507184422 | 72 | 346 | 1.0 | 2.0 | 0.00 | 0.00 | 0.00 | 87 | 1009.9 |
| 20260507183920 | 71 | 272 | 3.0 | 6.0 | 0.00 | 0.00 | 0.00 | 86 | 1009.7 |
| 20260507183416 | 72 | 333 | 3.0 | 3.0 | 0.00 | 0.00 | 0.00 | 86 | 1010.0 |
| 20260507182914 | 71 | 201 | 2.0 | 3.0 | 0.00 | 0.00 | 0.00 | 86 | 1009.9 |
| 20260507182409 | 71 | 261 | 2.0 | 2.0 | 0.00 | 0.00 | 0.00 | 87 | 1010.2 |
| 20260507181906 | 71 | 263 | 1.0 | 2.0 | 0.00 | 0.00 | 0.00 | 87 | 1010.1 |
| 20260507181402 | 71 | 317 | 3.0 | 6.0 | 0.00 | 0.00 | 0.00 | 87 | 1010.2 |
| 20260507180859 | 71 | 17 | 2.0 | 2.0 | 0.00 | 0.00 | 0.00 | 87 | 1010.3 |
| 20260507180355 | 71 | 241 | 2.0 | 3.0 | 0.00 | 0.00 | 0.00 | 87 | 1010.3 |
| 20260507175852 | 71 | 287 | 4.0 | 6.0 | 0.00 | 0.00 | 0.00 | 87 | 1010.3 |
| 20260507175348 | 71 | 46 | 3.0 | 4.0 | 0.00 | 0.00 | 0.00 | 87 | 1010.6 |
| 20260507174846 | 71 | 203 | 2.0 | 2.0 | 0.00 | 0.00 | 0.00 | 87 | 1010.5 |
| 20260507174343 | 71 | 40 | 4.0 | 7.0 | 0.00 | 0.00 | 0.00 | 87 | 1010.4 |
| 20260507173841 | 71 | 250 | 2.0 | 3.0 | 0.00 | 0.00 | 0.00 | 87 | 1010.3 |
| 20260507173338 | 71 | 274 | 4.0 | 7.0 | 0.00 | 0.00 | 0.00 | 86 | 1010.4 |
| 20260507172834 | 71 | 317 | 2.0 | 3.0 | 0.00 | 0.00 | 0.00 | 87 | 1010.3 |
| 20260507172331 | 71 | 235 | 1.0 | 2.0 | 0.00 | 0.00 | 0.00 | 87 | 1010.6 |
| 20260507171827 | 71 | 330 | 4.0 | 6.0 | 0.00 | 0.00 | 0.00 | 87 | 1010.6 |
| 20260507171324 | 71 | 232 | 2.0 | 2.0 | 0.00 | 0.00 | 0.00 | 87 | 1010.2 |
| 20260507170821 | 71 | 209 | 1.0 | 2.0 | 0.00 | 0.00 | 0.00 | 87 | 1010.3 |
| 20260507170317 | 71 | 262 | 2.0 | 3.0 | 0.00 | 0.00 | 0.00 | 86 | 1010.3 |
| 20260507165813 | 71 | 221 | 1.0 | 2.0 | 0.00 | 0.00 | 0.00 | 87 | 1010.3 |
| 20260507165309 | 71 | 273 | 6.0 | 7.0 | 0.00 | 0.00 | 0.00 | 87 | 1010.0 |
| 20260507164805 | 71 | 274 | 4.0 | 6.0 | 0.00 | 0.00 | 0.00 | 86 | 1009.8 |
| 20260507164303 | 72 | 288 | 5.0 | 8.0 | 0.00 | 0.00 | 0.00 | 86 | 1009.9 |
| 20260507163800 | 72 | 202 | 2.0 | 2.0 | 0.00 | 0.00 | 0.00 | 86 | 1009.8 |
| 20260507163257 | 72 | 262 | 3.0 | 6.0 | 0.00 | 0.00 | 0.00 | 86 | 1009.6 |
| 20260507162753 | 71 | 274 | 3.0 | 6.0 | 0.00 | 0.00 | 0.00 | 86 | 1009.7 |
| 20260507162249 | 72 | 286 | 3.0 | 4.0 | 0.00 | 0.00 | 0.00 | 86 | 1009.8 |
| 20260507161746 | 71 | 219 | 3.0 | 6.0 | 0.00 | 0.00 | 0.00 | 87 | 1009.8 |
| 20260507161243 | 71 | 318 | 4.0 | 6.0 | 0.00 | 0.00 | 0.00 | 86 | 1009.8 |
| 20260507160738 | 71 | 256 | 2.0 | 2.0 | 0.00 | 0.00 | 0.00 | 87 | 1009.7 |
| 20260507160235 | 71 | 272 | 4.0 | 7.0 | 0.00 | 0.00 | 0.00 | 87 | 1009.8 |
| 20260507155731 | 71 | 1 | 2.0 | 3.0 | 0.00 | 0.00 | 0.00 | 88 | 1009.8 |
| 20260507155227 | 70 | 259 | 4.0 | 7.0 | 0.00 | 0.00 | 0.00 | 88 | 1009.7 |
| 20260507154724 | 70 | 306 | 3.0 | 4.0 | 0.00 | 0.00 | 0.00 | 88 | 1009.6 |
| 20260507154222 | 71 | 247 | 2.0 | 4.0 | 0.00 | 0.00 | 0.00 | 87 | 1009.6 |
| 20260507153718 | 71 | 158 | 2.0 | 3.0 | 0.00 | 0.00 | 0.00 | 87 | 1009.4 |
| 20260507153215 | 71 | 242 | 1.0 | 2.0 | 0.00 | 0.00 | 0.00 | 87 | 1009.6 |
| 20260507152711 | 70 | 281 | 2.0 | 2.0 | 0.00 | 0.00 | 0.00 | 87 | 1009.6 |
| 20260507152207 | 70 | 208 | 1.0 | 1.0 | 0.00 | 0.00 | 0.00 | 88 | 1009.5 |
| 20260507151703 | 70 | 249 | 4.0 | 6.0 | 0.00 | 0.00 | 0.00 | 88 | 1009.6 |
| 20260507151200 | 70 | 33 | 2.0 | 3.0 | 0.00 | 0.00 | 0.00 | 88 | 1009.9 |
| 20260507150657 | 70 | 221 | 0.0 | 1.0 | 0.00 | 0.00 | 0.00 | 88 | 1009.6 |
| 20260507150154 | 70 | 244 | 3.0 | 3.0 | 0.00 | 0.00 | 0.00 | 88 | 1009.9 |
| 20260507145649 | 70 | 236 | 2.0 | 2.0 | 0.00 | 0.00 | 0.00 | 88 | 1009.9 |
| 20260507145147 | 70 | 322 | 2.0 | 2.0 | 0.00 | 0.00 | 0.00 | 88 | 1009.8 |
| 20260507144643 | 70 | 274 | 5.0 | 8.0 | 0.00 | 0.00 | 0.00 | 88 | 1009.7 |
| 20260507144142 | 70 | 243 | 2.0 | 2.0 | 0.00 | 0.00 | 0.00 | 89 | 1009.7 |
| 20260507143638 | 70 | 20 | 2.0 | 3.0 | 0.00 | 0.00 | 0.00 | 89 | 1009.6 |
| 20260507143135 | 70 | 216 | 0.0 | 0.0 | 0.00 | 0.00 | 0.00 | 89 | 1009.6 |
| 20260507142630 | 70 | 296 | 2.0 | 4.0 | 0.00 | 0.00 | 0.00 | 89 | 1009.5 |
| 20260507142127 | 70 | 144 | 2.0 | 2.0 | 0.00 | 0.00 | 0.00 | 89 | 1009.6 |
| 20260507141623 | 70 | 66 | 1.0 | 1.0 | 0.00 | 0.00 | 0.00 | 89 | 1009.6 |
| 20260507141120 | 70 | 291 | 1.0 | 1.0 | 0.00 | 0.00 | 0.00 | 89 | 1009.3 |
| 20260507140617 | 70 | 262 | 2.0 | 2.0 | 0.00 | 0.00 | 0.00 | 89 | 1009.4 |
| 20260507140114 | 70 | 236 | 2.0 | 2.0 | 0.00 | 0.00 | 0.00 | 89 | 1009.5 |
| 20260507135611 | 70 | 21 | 2.0 | 2.0 | 0.00 | 0.00 | 0.00 | 89 | 1009.5 |
| 20260507135109 | 70 | 297 | 2.0 | 4.0 | 0.00 | 0.00 | 0.00 | 88 | 1009.2 |
| 20260507134605 | 70 | 73 | 0.0 | 1.0 | 0.00 | 0.00 | 0.00 | 89 | 1009.3 |
| 20260507134101 | 70 | 311 | 4.0 | 4.0 | 0.00 | 0.00 | 0.00 | 89 | 1009.1 |
| 20260507133557 | 70 | 269 | 2.0 | 3.0 | 0.00 | 0.00 | 0.00 | 90 | 1009.0 |
| 20260507133055 | 70 | 234 | 1.0 | 2.0 | 0.00 | 0.00 | 0.00 | 90 | 1009.1 |
| 20260507132552 | 70 | 254 | 2.0 | 3.0 | 0.00 | 0.00 | 0.00 | 89 | 1009.0 |
| 20260507132048 | 70 | 234 | 2.0 | 2.0 | 0.00 | 0.00 | 0.00 | 90 | 1008.6 |
| 20260507131545 | 70 | 249 | 3.0 | 3.0 | 0.00 | 0.00 | 0.00 | 90 | 1008.6 |
| 20260507131042 | 70 | 40 | 1.0 | 2.0 | 0.00 | 0.00 | 0.00 | 90 | 1008.5 |
| 20260507130539 | 70 | 227 | 1.0 | 2.0 | 0.00 | 0.00 | 0.00 | 90 | 1008.5 |
| 20260507130037 | 70 | 236 | 2.0 | 3.0 | 0.00 | 0.00 | 0.00 | 90 | 1008.6 |
| 20260507125535 | 70 | 254 | 0.0 | 2.0 | 0.00 | 0.00 | 0.00 | 90 | 1008.6 |
| 20260507125032 | 70 | 325 | 3.0 | 4.0 | 0.00 | 0.00 | 0.00 | 90 | 1008.7 |
| 20260507124529 | 70 | 232 | 1.0 | 1.0 | 0.00 | 0.00 | 0.00 | 91 | 1008.3 |
| 20260507124027 | 70 | 243 | 1.0 | 2.0 | 0.00 | 0.00 | 0.00 | 91 | 1008.1 |
| 20260507123525 | 70 | 241 | 2.0 | 2.0 | 0.00 | 0.00 | 0.00 | 91 | 1008.3 |
| 20260507123021 | 70 | 25 | 3.0 | 6.0 | 0.00 | 0.00 | 0.00 | 91 | 1008.0 |
| 20260507122516 | 70 | 237 | 1.0 | 2.0 | 0.00 | 0.00 | 0.00 | 90 | 1007.9 |
| 20260507122013 | 70 | 118 | 1.0 | 1.0 | 0.00 | 0.00 | 0.00 | 90 | 1008.0 |
| 20260507121508 | 70 | 303 | 2.0 | 3.0 | 0.00 | 0.00 | 0.00 | 90 | 1007.8 |
| 20260507121004 | 70 | 323 | 1.0 | 2.0 | 0.00 | 0.00 | 0.00 | 90 | 1007.7 |
| 20260507120501 | 70 | 320 | 2.0 | 2.0 | 0.00 | 0.00 | 0.00 | 90 | 1007.6 |
| 20260507115957 | 70 | 320 | 2.0 | 2.0 | 0.00 | 0.00 | 0.00 | 90 | 1007.8 |
| 20260507115454 | 70 | 320 | 3.0 | 6.0 | 0.00 | 0.00 | 0.00 | 90 | 1007.7 |
| 20260507114949 | 70 | 320 | 3.0 | 4.0 | 0.00 | 0.00 | 0.00 | 90 | 1007.3 |
| 20260507114446 | 70 | 320 | 3.0 | 3.0 | 0.00 | 0.00 | 0.00 | 91 | 1007.5 |
| 20260507113943 | 70 | 320 | 1.0 | 1.0 | 0.00 | 0.00 | 0.00 | 91 | 1007.1 |
| 20260507113440 | 70 | 320 | 3.0 | 7.0 | 0.00 | 0.00 | 0.00 | 91 | 1007.1 |
| 20260507112938 | 70 | 320 | 1.0 | 2.0 | 0.00 | 0.00 | 0.00 | 91 | 1007.1 |
| 20260507112435 | 70 | 320 | 2.0 | 4.0 | 0.00 | 0.00 | 0.00 | 91 | 1007.1 |
| 20260507111932 | 70 | 320 | 0.0 | 0.0 | 0.00 | 0.00 | 0.00 | 91 | 1007.0 |
| 20260507111429 | 70 | 320 | 2.0 | 2.0 | 0.00 | 0.00 | 0.00 | 91 | 1006.9 |
| 20260507110925 | 70 | 310 | 4.0 | 6.0 | 0.00 | 0.00 | 0.00 | 90 | 1007.2 |
| 20260507110421 | 70 | 306 | 3.0 | 4.0 | 0.00 | 0.00 | 0.00 | 90 | 1006.8 |
| 20260507105918 | 70 | 316 | 3.0 | 6.0 | 0.00 | 0.00 | 0.00 | 90 | 1006.7 |
| 20260507105415 | 70 | 302 | 5.0 | 7.0 | 0.00 | 0.00 | 0.00 | 91 | 1006.8 |
| 20260507104912 | 71 | 297 | 2.0 | 3.0 | 0.00 | 0.00 | 0.00 | 91 | 1007.2 |
| 20260507104409 | 71 | 253 | 3.0 | 4.0 | 0.00 | 0.00 | 0.00 | 90 | 1007.0 |
| 20260507103904 | 71 | 2 | 3.0 | 6.0 | 0.00 | 0.00 | 0.00 | 90 | 1007.3 |
| 20260507103402 | 71 | 229 | 1.0 | 1.0 | 0.00 | 0.00 | 0.00 | 90 | 1007.6 |
| 20260507102857 | 71 | 312 | 2.0 | 3.0 | 0.00 | 0.00 | 0.00 | 90 | 1007.6 |
| 20260507102354 | 71 | 147 | 0.0 | 1.0 | 0.00 | 0.00 | 0.00 | 90 | 1007.7 |
| 20260507101851 | 71 | 249 | 0.0 | 1.0 | 0.00 | 0.00 | 0.00 | 89 | 1007.7 |
| 20260507101350 | 71 | 233 | 2.0 | 4.0 | 0.00 | 0.00 | 0.00 | 89 | 1007.6 |
| 20260507100848 | 71 | 257 | 2.0 | 2.0 | 0.00 | 0.00 | 0.00 | 89 | 1007.7 |
| 20260507100346 | 71 | 211 | 1.0 | 2.0 | 0.00 | 0.00 | 0.00 | 89 | 1007.5 |
| 20260507095844 | 71 | 178 | 0.0 | 1.0 | 0.00 | 0.00 | 0.00 | 89 | 1007.4 |
| 20260507095340 | 71 | 234 | 1.0 | 1.0 | 0.00 | 0.00 | 0.00 | 90 | 1007.4 |
| 20260507094837 | 71 | 236 | 1.0 | 1.0 | 0.00 | 0.00 | 0.00 | 90 | 1007.4 |
| 20260507094333 | 71 | 188 | 0.0 | 1.0 | 0.00 | 0.00 | 0.00 | 89 | 1007.4 |
| 20260507093831 | 71 | 256 | 2.0 | 3.0 | 0.00 | 0.00 | 0.00 | 89 | 1007.4 |
| 20260507093329 | 71 | 305 | 2.0 | 4.0 | 0.00 | 0.00 | 0.00 | 89 | 1007.4 |
| 20260507092827 | 71 | 164 | 0.0 | 1.0 | 0.00 | 0.00 | 0.00 | 89 | 1007.0 |
| 20260507092323 | 71 | 40 | 2.0 | 3.0 | 0.00 | 0.00 | 0.00 | 89 | 1006.9 |
| 20260507091819 | 71 | 203 | 1.0 | 1.0 | 0.00 | 0.00 | 0.00 | 89 | 1006.9 |
| 20260507091316 | 71 | 36 | 3.0 | 3.0 | 0.00 | 0.00 | 0.00 | 89 | 1006.8 |
| 20260507090811 | 71 | 228 | 1.0 | 2.0 | 0.00 | 0.00 | 0.00 | 89 | 1007.0 |
| 20260507090308 | 72 | 72 | 2.0 | 3.0 | 0.00 | 0.00 | 0.00 | 89 | 1007.2 |
| 20260507085805 | 72 | 217 | 1.0 | 2.0 | 0.00 | 0.00 | 0.00 | 90 | 1007.2 |
| 20260507085306 | 72 | 232 | 1.0 | 2.0 | 0.00 | 0.00 | 0.00 | 90 | 1007.1 |
| 20260507084759 | 72 | 223 | 0.0 | 1.0 | 0.00 | 0.00 | 0.00 | 90 | 1006.9 |
| 20260507084255 | 72 | 128 | 4.0 | 4.0 | 0.00 | 0.00 | 0.00 | 90 | 1007.0 |
| 20260507083753 | 72 | 267 | 1.0 | 2.0 | 0.00 | 0.00 | 0.00 | 90 | 1007.3 |
| 20260507083249 | 72 | 14 | 0.0 | 2.0 | 0.00 | 0.00 | 0.00 | 90 | 1007.2 |
| 20260507082745 | 72 | 17 | 3.0 | 4.0 | 0.00 | 0.00 | 0.00 | 91 | 1007.0 |
| 20260507082241 | 72 | 62 | 0.0 | 2.0 | 0.00 | 0.00 | 0.00 | 91 | 1006.7 |
| 20260507081738 | 72 | 215 | 0.0 | 0.0 | 0.00 | 0.00 | 0.00 | 91 | 1006.9 |
| 20260507081234 | 72 | 290 | 3.0 | 4.0 | 0.00 | 0.00 | 0.00 | 91 | 1006.9 |
| 20260507080731 | 72 | 60 | 1.0 | 1.0 | 0.00 | 0.00 | 0.00 | 92 | 1006.8 |
| 20260507080227 | 72 | 212 | 1.0 | 2.0 | 0.00 | 0.00 | 0.00 | 92 | 1006.8 |
| 20260507075723 | 72 | 332 | 1.0 | 3.0 | 0.00 | 0.00 | 0.00 | 93 | 1006.6 |
| 20260507075219 | 71 | 248 | 1.0 | 3.0 | 0.00 | 0.00 | 0.00 | 93 | 1006.8 |
| 20260507074716 | 72 | 260 | 0.0 | 1.0 | 0.00 | 0.00 | 0.00 | 94 | 1006.8 |
| 20260507074214 | 73 | 249 | 1.0 | 2.0 | 0.00 | 0.00 | 0.00 | 93 | 1006.8 |
| 20260507073710 | 73 | 236 | 1.0 | 1.0 | 0.00 | 0.00 | 0.00 | 92 | 1007.0 |
| 20260507073206 | 73 | 254 | 2.0 | 3.0 | 0.00 | 0.00 | 0.00 | 91 | 1006.8 |
| 20260507072705 | 73 | 315 | 3.0 | 7.0 | 0.00 | 0.00 | 0.00 | 92 | 1006.7 |
| 20260507072202 | 73 | 249 | 2.0 | 2.0 | 0.00 | 0.00 | 0.00 | 92 | 1006.9 |
| 20260507071659 | 73 | 280 | 2.0 | 3.0 | 0.00 | 0.00 | 0.00 | 92 | 1007.1 |
| 20260507071155 | 73 | 294 | 2.0 | 3.0 | 0.00 | 0.00 | 0.00 | 92 | 1006.8 |
| 20260507070653 | 74 | 261 | 2.0 | 2.0 | 0.00 | 0.00 | 0.00 | 92 | 1006.8 |
| 20260507070149 | 74 | 277 | 2.0 | 2.0 | 0.00 | 0.00 | 0.00 | 92 | 1006.8 |
| 20260507065645 | 74 | 214 | 1.0 | 2.0 | 0.00 | 0.00 | 0.00 | 92 | 1006.8 |
| 20260507065143 | 74 | 223 | 2.0 | 3.0 | 0.00 | 0.00 | 0.00 | 93 | 1006.9 |
| 20260507064640 | 74 | 200 | 1.0 | 2.0 | 0.00 | 0.00 | 0.00 | 94 | 1006.8 |
| 20260507064139 | 74 | 267 | 3.0 | 4.0 | 0.00 | 0.00 | 0.00 | 97 | 1006.8 |
| 20260507063636 | 78 | 193 | 1.0 | 2.0 | 0.00 | 0.00 | 0.00 | 98 | 1006.7 |
| 20260507063133 | 78 | 295 | 0.0 | 0.0 | 0.00 | 0.00 | 0.00 | 99 | 1006.6 |
| 20260507062629 | 78 | 228 | 0.0 | 0.0 | 0.00 | 0.00 | 0.00 | 99 | 1006.7 |
| 20260507062127 | 78 | 216 | 0.0 | 1.0 | 0.00 | 0.00 | 0.00 | 99 | 1006.4 |
| 20260507061625 | 78 | 322 | 0.0 | 0.0 | 0.00 | 0.00 | 0.00 | 99 | 1006.6 |
| 20260507061123 | 79 | 213 | 0.0 | 0.0 | 0.00 | 0.00 | 0.00 | 99 | 1006.6 |
| 20260507060621 | 79 | 27 | 2.0 | 2.0 | 0.00 | 0.00 | 0.00 | 99 | 1006.5 |
| 20260507060117 | 79 | 301 | 0.0 | 1.0 | 0.00 | 0.00 | 0.00 | 99 | 1006.4 |
| 20260507055612 | 79 | 205 | 0.0 | 0.0 | 0.00 | 0.00 | 0.00 | 99 | 1006.7 |
| 20260507055108 | 79 | 20 | 2.0 | 3.0 | 0.00 | 0.00 | 0.00 | 99 | 1006.7 |
| 20260507054604 | 79 | 212 | 0.0 | 0.0 | 0.00 | 0.00 | 0.00 | 99 | 1006.6 |
| 20260507054101 | 79 | 217 | 0.0 | 0.0 | 0.00 | 0.00 | 0.00 | 99 | 1006.7 |
| 20260507053559 | 79 | 203 | 0.0 | 0.0 | 0.00 | 0.00 | 0.00 | 99 | 1006.8 |
| 20260507053058 | 79 | 248 | 2.0 | 2.0 | 0.00 | 0.00 | 0.00 | 99 | 1006.7 |
| 20260507052556 | 79 | 215 | 0.0 | 0.0 | 0.00 | 0.00 | 0.00 | 99 | 1006.8 |
| 20260507052052 | 79 | 219 | 0.0 | 0.0 | 0.00 | 0.00 | 0.00 | 99 | 1006.4 |
| 20260507051549 | 79 | 137 | 0.0 | 1.0 | 0.00 | 0.00 | 0.00 | 99 | 1006.5 |
| 20260507051046 | 79 | 217 | 0.0 | 0.0 | 0.00 | 0.00 | 0.00 | 99 | 1006.6 |
| 20260507050543 | 79 | 257 | 1.0 | 1.0 | 0.00 | 0.00 | 0.00 | 99 | 1006.4 |
| 20260507050039 | 79 | 219 | 0.0 | 0.0 | 0.00 | 0.00 | 0.00 | 99 | 1006.5 |
| 20260507045536 | 79 | 205 | 0.0 | 0.0 | 0.00 | 0.00 | 0.00 | 99 | 1006.6 |
| 20260507045033 | 79 | 186 | 0.0 | 0.0 | 0.00 | 0.00 | 0.00 | 99 | 1006.6 |
| 20260507044530 | 79 | 214 | 0.0 | 0.0 | 0.00 | 0.00 | 0.00 | 99 | 1006.5 |
| 20260507044027 | 79 | 232 | 0.0 | 0.0 | 0.00 | 0.00 | 0.00 | 99 | 1006.6 |
| 20260507043522 | 79 | 203 | 0.0 | 0.0 | 0.00 | 0.00 | 0.00 | 99 | 1006.4 |
| 20260507043020 | 79 | 225 | 0.0 | 0.0 | 0.00 | 0.00 | 0.00 | 99 | 1006.3 |
| 20260507042516 | 79 | 234 | 0.0 | 0.0 | 0.00 | 0.00 | 0.00 | 99 | 1006.1 |
| 20260507042011 | 79 | 184 | 0.0 | 0.0 | 0.00 | 0.00 | 0.00 | 99 | 1006.3 |
| 20260507041509 | 78 | 213 | 0.0 | 0.0 | 0.00 | 0.00 | 0.00 | 99 | 1006.4 |
| 20260507041006 | 78 | 279 | 1.0 | 1.0 | 0.00 | 0.00 | 0.00 | 99 | 1006.2 |
| 20260507040501 | 78 | 215 | 0.0 | 0.0 | 0.00 | 0.00 | 0.00 | 99 | 1006.1 |
| 20260507035957 | 78 | 221 | 0.0 | 1.0 | 0.00 | 0.00 | 0.00 | 99 | 1006.1 |
| 20260507035454 | 78 | 194 | 1.0 | 2.0 | 0.00 | 0.00 | 0.00 | 99 | 1006.1 |
| 20260507034951 | 78 | 215 | 1.0 | 1.0 | 0.00 | 0.00 | 0.00 | 99 | 1005.8 |
| 20260507034448 | 78 | 267 | 1.0 | 2.0 | 0.00 | 0.00 | 0.00 | 99 | 1006.1 |
| 20260507033946 | 78 | 326 | 1.0 | 2.0 | 0.00 | 0.00 | 0.00 | 99 | 1005.8 |
| 20260507033443 | 78 | 213 | 0.0 | 0.0 | 0.00 | 0.00 | 0.00 | 99 | 1005.7 |
| 20260507032940 | 78 | 207 | 0.0 | 0.0 | 0.00 | 0.00 | 0.00 | 99 | 1005.7 |
| 20260507032437 | 78 | 206 | 0.0 | 1.0 | 0.00 | 0.00 | 0.00 | 99 | 1005.5 |
| 20260507031933 | 78 | 208 | 0.0 | 0.0 | 0.00 | 0.00 | 0.00 | 99 | 1005.3 |
| 20260507031430 | 78 | 234 | 0.0 | 0.0 | 0.00 | 0.00 | 0.00 | 99 | 1005.2 |
| 20260507030926 | 78 | 212 | 0.0 | 0.0 | 0.00 | 0.00 | 0.00 | 99 | 1005.2 |
| 20260507030424 | 78 | 228 | 0.0 | 0.0 | 0.00 | 0.00 | 0.00 | 99 | 1005.1 |
| 20260507025921 | 78 | 217 | 0.0 | 0.0 | 0.00 | 0.00 | 0.00 | 99 | 1005.1 |
| 20260507025418 | 78 | 162 | 1.0 | 1.0 | 0.00 | 0.00 | 0.00 | 99 | 1005.0 |
| 20260507024916 | 78 | 232 | 1.0 | 2.0 | 0.00 | 0.00 | 0.00 | 98 | 1005.1 |
| 20260507024413 | 78 | 205 | 0.0 | 0.0 | 0.00 | 0.00 | 0.00 | 98 | 1005.0 |
| 20260507023909 | 78 | 223 | 0.0 | 1.0 | 0.00 | 0.00 | 0.00 | 98 | 1005.2 |
| 20260507023406 | 78 | 222 | 0.0 | 0.0 | 0.00 | 0.00 | 0.00 | 98 | 1004.9 |
| 20260507022903 | 78 | 212 | 0.0 | 0.0 | 0.00 | 0.00 | 0.00 | 98 | 1004.8 |
| 20260507022359 | 79 | 168 | 0.0 | 0.0 | 0.00 | 0.00 | 0.00 | 98 | 1004.7 |
| 20260507021855 | 79 | 203 | 0.0 | 1.0 | 0.00 | 0.00 | 0.00 | 98 | 1004.8 |
| 20260507021350 | 78 | 218 | 0.0 | 0.0 | 0.00 | 0.00 | 0.00 | 98 | 1004.5 |
| 20260507020849 | 78 | 275 | 0.0 | 0.0 | 0.00 | 0.00 | 0.00 | 98 | 1004.6 |
| 20260507020345 | 79 | 292 | 1.0 | 2.0 | 0.00 | 0.00 | 0.00 | 98 | 1004.4 |
| 20260507015842 | 79 | 186 | 1.0 | 2.0 | 0.00 | 0.00 | 0.00 | 98 | 1004.5 |
| 20260507015340 | 79 | 207 | 0.0 | 0.0 | 0.00 | 0.00 | 0.00 | 97 | 1004.3 |
| 20260507014837 | 79 | 220 | 0.0 | 0.0 | 0.00 | 0.00 | 0.00 | 97 | 1004.4 |
| 20260507014333 | 79 | 225 | 1.0 | 2.0 | 0.00 | 0.00 | 0.00 | 97 | 1004.0 |
| 20260507013830 | 79 | 217 | 0.0 | 0.0 | 0.00 | 0.00 | 0.00 | 97 | 1004.0 |
| 20260507013327 | 79 | 256 | 0.0 | 0.0 | 0.00 | 0.00 | 0.00 | 97 | 1003.8 |
| 20260507012825 | 79 | 193 | 1.0 | 1.0 | 0.00 | 0.00 | 0.00 | 97 | 1004.0 |
| 20260507012320 | 79 | 205 | 0.0 | 0.0 | 0.00 | 0.00 | 0.00 | 97 | 1003.8 |
| 20260507011812 | 79 | 212 | 0.0 | 0.0 | 0.00 | 0.00 | 0.00 | 96 | 1003.9 |
| 20260507011309 | 79 | 84 | 1.0 | 3.0 | 0.00 | 0.00 | 0.00 | 96 | 1004.0 |
| 20260507010808 | 79 | 212 | 0.0 | 1.0 | 0.00 | 0.00 | 0.00 | 96 | 1003.7 |
| 20260507010304 | 80 | 195 | 0.0 | 1.0 | 0.00 | 0.00 | 0.00 | 96 | 1003.8 |
| 20260507005802 | 80 | 311 | 2.0 | 2.0 | 0.00 | 0.00 | 0.00 | 95 | 1003.8 |
| 20260507005258 | 80 | 236 | 2.0 | 3.0 | 0.00 | 0.00 | 0.00 | 95 | 1003.5 |
| 20260507004755 | 80 | 202 | 0.0 | 0.0 | 0.00 | 0.00 | 0.00 | 95 | 1003.6 |
| 20260507004252 | 80 | 72 | 1.0 | 2.0 | 0.00 | 0.00 | 0.00 | 95 | 1003.4 |
| 20260507003748 | 80 | 309 | 1.0 | 1.0 | 0.00 | 0.00 | 0.00 | 94 | 1003.3 |
| 20260507003244 | 80 | 331 | 1.0 | 1.0 | 0.00 | 0.00 | 0.00 | 94 | 1003.5 |
| 20260507002740 | 81 | 206 | 1.0 | 1.0 | 0.00 | 0.00 | 0.00 | 94 | 1003.0 |
| 20260507002236 | 81 | 192 | 1.0 | 1.0 | 0.00 | 0.00 | 0.00 | 93 | 1003.1 |
| 20260507001733 | 81 | 225 | 0.0 | 0.0 | 0.00 | 0.00 | 0.00 | 93 | 1003.0 |
| 20260507001231 | 81 | 199 | 2.0 | 2.0 | 0.00 | 0.00 | 0.00 | 93 | 1003.2 |
| 20260507000727 | 81 | 284 | 1.0 | 1.0 | 0.00 | 0.00 | 0.00 | 93 | 1003.0 |
| 20260507000222 | 81 | 166 | 1.0 | 2.0 | 0.00 | 0.00 | 0.00 | 93 | 1003.0 |
| 20260506235720 | 81 | 142 | 1.0 | 1.0 | 0.00 | 0.00 | 0.00 | 93 | 1002.9 |
| 20260506235215 | 81 | 259 | 2.0 | 2.0 | 0.00 | 0.00 | 0.00 | 93 | 1002.8 |
| 20260506234712 | 81 | 122 | 1.0 | 2.0 | 0.00 | 0.00 | 0.00 | 93 | 1002.8 |
| 20260506234210 | 81 | 201 | 1.0 | 3.0 | 0.00 | 0.00 | 0.00 | 93 | 1002.6 |
| 20260506233707 | 81 | 182 | 1.0 | 3.0 | 0.00 | 0.00 | 0.00 | 93 | 1002.7 |
| 20260506233203 | 81 | 102 | 2.0 | 3.0 | 0.00 | 0.00 | 0.00 | 93 | 1002.9 |
| 20260506232700 | 81 | 268 | 1.0 | 2.0 | 0.00 | 0.00 | 0.00 | 92 | 1002.7 |